STARLINK-1227, 45230

Orbit data source: Space-Track

STARLINK-1227, 45230 is a payload satellite owned by SpaceX/Seattle (US) in LEO that was launched on Mon, 17 Feb 2020 UTC via an FALCON 9 launch vehicle from the Air Force Eastern Test Range (AFETR). Payload-class satellites include a variety of spacecraft equipped with specific instruments for various scientific and technological missions. These include communications satellites like Starlink; space stations such as the ISS; scientific satellites like the Hubble; Earth observation satellites from companies like Planet Labs, Umbra, and HawkEye 360; GPS; miniature CubeSats for education and research; and military/defense satellites.

Loading next visibility...
Identifier
45230, 2020-012BE
Orbit
LEO
Country
Flag of USUS
Related business
Manufacturer
SpaceX/Seattle
Mission
Operational Commercial Communications
Bus & Motor
STARLINK, Unknown motor
Mass
260 kg wet, ~248 kg dry
Launch date (UTC)
2020-02-17 (6 years ago)
Launch vehicle
FALCON 9
Launch site
Air Force Eastern Test Range (AFETR)
Object type
Payload
Rocket body
Debris
Shape & HBR
Box + 1 Pan, 10.1 m
Radar Cross Section
13.562 m², Large (>1 m²)

Expand to show TLE details & history
Last TLE update: 4 hours ago

TLE from 4 hours ago
0 STARLINK-1227
1 45230U 20012BE  25302.52789463 -.00000035  00000-0  16573-4 0  9990
2 45230  53.0535 235.4278 0001545  92.5812 267.5354 15.06411213315645
Epoch: 2025-10-29T12:40Z
TLE epoch observation values (Epoch: 2025-10-29T12:40:10.096Z)
Latitude
0.00001°
Longitude
7.286°
Altitude
548.102 km
Speed
7.589 km/s
True Right ascension
15h 41m 42s
True Declination
0° 00' 00"
Sunlit
Object was in daylight at epoch
Visualization orbit readout
Latitude
Unknown
Longitude
Unknown
Altitude
Unknown
Speed
Unknown
Apparent Right ascension
Unknown
Apparent Declination
Unknown
Sunlit
N/A
Visualization observer readout
Local Sidereal Time
12:13:12
Azimuth
Unknown
Elevation
Unknown
Doppler factor
Unknown
Orbital elements
Apogee altitude
548.518 km
Perigee altitude
546.378 km
Semi-major axis
6,925.585 km
Eccentricity
0.00015
Inclination
53.0535°
RAAN
235.4278°
Arg. of periapsis
92.5812°
True anomaly
267.51771°
Mean anomaly
267.5354°
Eccentric anomaly
267.52656°
Mean motion
3.76581 °/min
Orbital period
95.6 mins
BSTAR
0.000016573
Loading maneuver chart data...
Computing Atmospheric mass density...

Documentation

Showing up to 5 results
|